| time (UTC) | temp F | wind direction | speed MPH | gust MPH | rain 1hr in | rain 24hr in | rain mn in | humidity % | barometer mb |
| 20260505073104 | 73 | 101 | 2.0 | 9.0 | 0.00 | 0.01 | 0.00 | 100 | 1016.0 |
| 20260505072557 | 73 | 101 | 2.0 | 8.0 | 0.00 | 0.01 | 0.00 | 100 | 1016.0 |
| 20260505072054 | 73 | 86 | 1.0 | 10.0 | 0.00 | 0.01 | 0.00 | 100 | 1016.1 |
| 20260505071556 | 73 | 103 | 3.0 | 11.0 | 0.00 | 0.01 | 0.00 | 100 | 1016.0 |
| 20260505071052 | 73 | 98 | 3.0 | 8.0 | 0.00 | 0.01 | 0.00 | 100 | 1016.1 |
| 20260505070551 | 73 | 111 | 4.0 | 9.0 | 0.00 | 0.01 | 0.00 | 100 | 1016.1 |
| 20260505070053 | 73 | 128 | 3.0 | 9.0 | 0.00 | 0.01 | 0.00 | 100 | 1016.2 |
| 20260505065548 | 73 | 118 | 2.0 | 13.0 | 0.00 | 0.01 | 0.00 | 100 | 1016.1 |
| 20260505065045 | 73 | 133 | 3.0 | 13.0 | 0.00 | 0.01 | 0.00 | 100 | 1016.0 |
| 20260505064545 | 74 | 93 | 3.0 | 10.0 | 0.00 | 0.01 | 0.00 | 100 | 1016.3 |
| 20260505064043 | 73 | 118 | 3.0 | 9.0 | 0.00 | 0.01 | 0.00 | 100 | 1016.3 |
| 20260505063544 | 74 | 106 | 3.0 | 10.0 | 0.00 | 0.01 | 0.00 | 100 | 1016.3 |
| 20260505063047 | 74 | 133 | 4.0 | 10.0 | 0.00 | 0.01 | 0.00 | 100 | 1016.4 |
| 20260505062537 | 73 | 119 | 4.0 | 10.0 | 0.00 | 0.01 | 0.00 | 100 | 1016.5 |
| 20260505062036 | 74 | 90 | 2.0 | 9.0 | 0.00 | 0.01 | 0.00 | 100 | 1016.6 |
| 20260505061539 | 74 | 98 | 4.0 | 9.0 | 0.00 | 0.01 | 0.00 | 100 | 1016.5 |
| 20260505061033 | 74 | 122 | 3.0 | 8.0 | 0.00 | 0.01 | 0.00 | 100 | 1016.5 |
| 20260505060533 | 73 | 98 | 3.0 | 6.0 | 0.00 | 0.01 | 0.00 | 100 | 1016.6 |
| 20260505060032 | 73 | 101 | 2.0 | 7.0 | 0.00 | 0.01 | 0.00 | 100 | 1017.0 |
| 20260505055530 | 74 | 104 | 3.0 | 7.0 | 0.00 | 0.01 | 0.00 | 100 | 1017.0 |
| 20260505055028 | 74 | 71 | 3.0 | 7.0 | 0.00 | 0.01 | 0.00 | 100 | 1017.2 |
| 20260505054526 | 74 | 110 | 1.0 | 9.0 | 0.00 | 0.01 | 0.00 | 100 | 1017.2 |
| 20260505054026 | 74 | 141 | 3.0 | 9.0 | 0.00 | 0.01 | 0.00 | 100 | 1017.2 |
| 20260505053522 | 74 | 145 | 2.0 | 7.0 | 0.00 | 0.01 | 0.00 | 100 | 1017.0 |
| 20260505053033 | 74 | 144 | 2.0 | 10.0 | 0.00 | 0.01 | 0.00 | 100 | 1017.0 |
| 20260505052519 | 74 | 84 | 3.0 | 10.0 | 0.00 | 0.01 | 0.00 | 100 | 1017.0 |
| 20260505052019 | 74 | 96 | 3.0 | 10.0 | 0.00 | 0.01 | 0.00 | 100 | 1017.0 |
| 20260505051534 | 74 | 121 | 5.0 | 10.0 | 0.00 | 0.01 | 0.00 | 100 | 1017.1 |
| 20260505051014 | 74 | 111 | 4.0 | 9.0 | 0.00 | 0.01 | 0.00 | 100 | 1017.2 |
| 20260505050513 | 74 | 103 | 2.0 | 8.0 | 0.00 | 0.01 | 0.00 | 100 | 1017.1 |
| 20260505041559 | 74 | 111 | 3.0 | 11.0 | 0.00 | 0.01 | 0.00 | 100 | 1017.3 |
| 20260505041058 | 74 | 85 | 2.0 | 10.0 | 0.00 | 0.01 | 0.00 | 100 | 1017.3 |
| 20260505040556 | 74 | 125 | 4.0 | 10.0 | 0.00 | 0.01 | 0.00 | 100 | 1017.4 |
| 20260505040055 | 74 | 119 | 2.0 | 10.0 | 0.00 | 0.01 | 0.00 | 100 | 1017.4 |
| 20260505035555 | 74 | 114 | 3.0 | 10.0 | 0.00 | 0.01 | 0.00 | 100 | 1017.5 |
| 20260505035051 | 74 | 117 | 3.0 | 9.0 | 0.00 | 0.01 | 0.00 | 100 | 1017.4 |
| 20260505034552 | 74 | 111 | 3.0 | 12.0 | 0.00 | 0.01 | 0.01 | 100 | 1017.4 |
| 20260505034051 | 74 | 128 | 5.0 | 13.0 | 0.00 | 0.01 | 0.01 | 100 | 1017.4 |
| 20260505033551 | 74 | 152 | 3.0 | 13.0 | 0.00 | 0.01 | 0.01 | 100 | 1017.4 |
| 20260505033054 | 74 | 153 | 2.0 | 9.0 | 0.00 | 0.01 | 0.01 | 100 | 1017.4 |
| 20260505032551 | 74 | 115 | 5.0 | 10.0 | 0.00 | 0.01 | 0.01 | 100 | 1017.5 |
| 20260505032050 | 74 | 119 | 4.0 | 10.0 | 0.00 | 0.01 | 0.01 | 100 | 1017.7 |
| 20260505031553 | 74 | 119 | 2.0 | 13.0 | 0.00 | 0.01 | 0.01 | 100 | 1017.7 |
| 20260505031049 | 74 | 130 | 5.0 | 13.0 | 0.00 | 0.01 | 0.01 | 100 | 1017.7 |
| 20260505030554 | 74 | 123 | 3.0 | 11.0 | 0.00 | 0.01 | 0.01 | 100 | 1017.7 |
| 20260505030050 | 74 | 138 | 4.0 | 11.0 | 0.00 | 0.01 | 0.01 | 100 | 1017.6 |
| 20260505025549 | 74 | 142 | 1.0 | 9.0 | 0.00 | 0.01 | 0.01 | 100 | 1017.5 |
| 20260505025052 | 74 | 119 | 3.0 | 12.0 | 0.00 | 0.01 | 0.01 | 100 | 1017.5 |
| 20260505024553 | 74 | 140 | 4.0 | 12.0 | 0.00 | 0.01 | 0.01 | 100 | 1017.7 |
| 20260505024048 | 74 | 123 | 3.0 | 13.0 | 0.00 | 0.01 | 0.01 | 100 | 1017.6 |
| 20260505023550 | 74 | 113 | 4.0 | 11.0 | 0.00 | 0.01 | 0.01 | 100 | 1017.7 |
| 20260505023052 | 74 | 130 | 4.0 | 10.0 | 0.00 | 0.01 | 0.01 | 100 | 1017.8 |
| 20260505022548 | 74 | 117 | 3.0 | 11.0 | 0.00 | 0.01 | 0.01 | 100 | 1017.8 |
| 20260505022051 | 74 | 99 | 4.0 | 15.0 | 0.00 | 0.01 | 0.01 | 100 | 1017.7 |
| 20260505021547 | 74 | 111 | 3.0 | 15.0 | 0.00 | 0.01 | 0.01 | 100 | 1017.6 |
| 20260505021047 | 74 | 123 | 6.0 | 14.0 | 0.00 | 0.01 | 0.01 | 100 | 1017.6 |
| 20260505020547 | 74 | 132 | 6.0 | 12.0 | 0.00 | 0.01 | 0.01 | 100 | 1017.5 |
| 20260505020050 | 74 | 101 | 4.0 | 10.0 | 0.00 | 0.01 | 0.01 | 100 | 1017.5 |
| 20260505015547 | 74 | 109 | 5.0 | 9.0 | 0.00 | 0.01 | 0.01 | 100 | 1017.5 |
| 20260505015046 | 74 | 157 | 5.0 | 9.0 | 0.00 | 0.01 | 0.01 | 100 | 1017.5 |
| 20260505014553 | 74 | 123 | 3.0 | 9.0 | 0.00 | 0.01 | 0.01 | 100 | 1017.5 |
| 20260505014045 | 74 | 132 | 3.0 | 9.0 | 0.00 | 0.01 | 0.01 | 100 | 1017.6 |
| 20260505013545 | 74 | 126 | 3.0 | 9.0 | 0.00 | 0.01 | 0.01 | 100 | 1017.6 |
| 20260505013045 | 74 | 128 | 3.0 | 12.0 | 0.00 | 0.01 | 0.01 | 100 | 1017.7 |
| 20260505012545 | 74 | 134 | 3.0 | 12.0 | 0.00 | 0.01 | 0.01 | 100 | 1017.6 |
| 20260505012045 | 74 | 121 | 3.0 | 12.0 | 0.00 | 0.01 | 0.01 | 100 | 1017.5 |
| 20260505011547 | 74 | 107 | 3.0 | 12.0 | 0.00 | 0.01 | 0.01 | 100 | 1017.5 |
| 20260505011044 | 74 | 107 | 3.0 | 11.0 | 0.00 | 0.01 | 0.01 | 100 | 1017.5 |
| 20260505010544 | 74 | 109 | 3.0 | 11.0 | 0.00 | 0.01 | 0.01 | 100 | 1017.3 |
| 20260505010104 | 74 | 128 | 3.0 | 11.0 | 0.00 | 0.01 | 0.01 | 100 | 1017.1 |
| 20260505005547 | 74 | 130 | 4.0 | 11.0 | 0.00 | 0.01 | 0.01 | 100 | 1017.1 |
| 20260505005045 | 74 | 119 | 4.0 | 11.0 | 0.00 | 0.01 | 0.01 | 100 | 1017.1 |
| 20260505004544 | 74 | 113 | 2.0 | 8.0 | 0.00 | 0.01 | 0.01 | 100 | 1017.1 |
| 20260505004043 | 74 | 117 | 4.0 | 9.0 | 0.00 | 0.01 | 0.01 | 100 | 1017.0 |
| 20260505003543 | 74 | 107 | 3.0 | 10.0 | 0.00 | 0.01 | 0.01 | 100 | 1017.1 |
| 20260505003046 | 74 | 132 | 4.0 | 11.0 | 0.00 | 0.01 | 0.01 | 100 | 1017.0 |
| 20260505002545 | 74 | 106 | 3.0 | 11.0 | 0.00 | 0.01 | 0.01 | 100 | 1017.1 |
| 20260505002042 | 74 | 120 | 2.0 | 9.0 | 0.00 | 0.01 | 0.01 | 100 | 1017.0 |
| 20260505001542 | 74 | 144 | 3.0 | 9.0 | 0.00 | 0.01 | 0.01 | 100 | 1016.9 |
| 20260505001111 | 74 | 96 | 2.0 | 12.0 | 0.00 | 0.01 | 0.01 | 100 | 1016.8 |
| 20260505000541 | 74 | 82 | 4.0 | 9.0 | 0.00 | 0.01 | 0.01 | 100 | 1016.7 |
| 20260505000046 | 74 | 146 | 3.0 | 9.0 | 0.00 | 0.01 | 0.01 | 100 | 1016.6 |
| 20260504235541 | 74 | 92 | 4.0 | 9.0 | 0.00 | 0.01 | 0.01 | 100 | 1016.5 |
| 20260504235043 | 74 | 128 | 3.0 | 11.0 | 0.00 | 0.01 | 0.01 | 100 | 1016.4 |
| 20260504234542 | 74 | 126 | 3.0 | 11.0 | 0.00 | 0.01 | 0.01 | 100 | 1016.4 |
| 20260504234041 | 74 | 134 | 3.0 | 10.0 | 0.00 | 0.01 | 0.01 | 100 | 1016.3 |
| 20260504233541 | 74 | 137 | 3.0 | 10.0 | 0.00 | 0.01 | 0.01 | 100 | 1016.3 |
| 20260504233040 | 74 | 148 | 3.0 | 11.0 | 0.00 | 0.01 | 0.01 | 100 | 1016.3 |
| 20260504232540 | 74 | 168 | 5.0 | 11.0 | 0.00 | 0.01 | 0.01 | 100 | 1016.3 |
| 20260504232039 | 74 | 30 | 3.0 | 8.0 | 0.00 | 0.01 | 0.01 | 100 | 1016.3 |
| 20260504231545 | 74 | 144 | 3.0 | 12.0 | 0.00 | 0.01 | 0.01 | 100 | 1016.4 |
| 20260504231039 | 74 | 109 | 3.0 | 12.0 | 0.00 | 0.01 | 0.01 | 100 | 1016.4 |
| 20260504230542 | 74 | 145 | 4.0 | 13.0 | 0.00 | 0.01 | 0.01 | 100 | 1016.5 |
| 20260504230044 | 74 | 85 | 6.0 | 13.0 | 0.00 | 0.01 | 0.01 | 100 | 1016.6 |
| 20260504225539 | 74 | 143 | 4.0 | 12.0 | 0.00 | 0.01 | 0.01 | 100 | 1016.4 |
| 20260504225038 | 74 | 116 | 4.0 | 10.0 | 0.00 | 0.01 | 0.01 | 100 | 1016.4 |
| 20260504224538 | 75 | 126 | 4.0 | 9.0 | 0.00 | 0.01 | 0.01 | 100 | 1016.3 |
| 20260504224038 | 75 | 136 | 3.0 | 10.0 | 0.00 | 0.01 | 0.01 | 100 | 1016.4 |
| 20260504223544 | 75 | 119 | 3.0 | 13.0 | 0.00 | 0.01 | 0.01 | 100 | 1016.5 |
| 20260504223040 | 75 | 116 | 3.0 | 14.0 | 0.00 | 0.01 | 0.01 | 100 | 1016.5 |
| 20260504222538 | 75 | 103 | 7.0 | 14.0 | 0.00 | 0.01 | 0.01 | 100 | 1016.4 |
| 20260504222037 | 75 | 99 | 3.0 | 11.0 | 0.00 | 0.01 | 0.01 | 100 | 1016.4 |
| 20260504221553 | 75 | 139 | 3.0 | 14.0 | 0.00 | 0.01 | 0.01 | 100 | 1016.5 |
| 20260504221037 | 75 | 108 | 3.0 | 11.0 | 0.00 | 0.01 | 0.01 | 100 | 1016.4 |
| 20260504220537 | 75 | 121 | 3.0 | 14.0 | 0.00 | 0.01 | 0.01 | 100 | 1016.5 |
| 20260504220037 | 75 | 111 | 5.0 | 14.0 | 0.00 | 0.01 | 0.01 | 100 | 1016.5 |
| 20260504215537 | 75 | 120 | 3.0 | 10.0 | 0.00 | 0.01 | 0.01 | 100 | 1016.5 |
| 20260504215036 | 75 | 110 | 3.0 | 11.0 | 0.00 | 0.01 | 0.01 | 100 | 1016.6 |
| 20260504214536 | 76 | 98 | 3.0 | 11.0 | 0.00 | 0.01 | 0.01 | 100 | 1016.5 |
| 20260504214036 | 76 | 115 | 4.0 | 12.0 | 0.00 | 0.01 | 0.01 | 100 | 1016.5 |
| 20260504213536 | 76 | 91 | 4.0 | 12.0 | 0.00 | 0.01 | 0.01 | 100 | 1016.5 |
| 20260504213047 | 76 | 84 | 2.0 | 12.0 | 0.00 | 0.01 | 0.01 | 100 | 1016.6 |
| 20260504212535 | 76 | 103 | 3.0 | 14.0 | 0.00 | 0.01 | 0.01 | 100 | 1016.6 |
| 20260504212038 | 76 | 109 | 4.0 | 14.0 | 0.00 | 0.01 | 0.01 | 100 | 1016.6 |
| 20260504211539 | 76 | 123 | 4.0 | 15.0 | 0.00 | 0.01 | 0.01 | 100 | 1016.6 |
| 20260504211035 | 77 | 128 | 3.0 | 10.0 | 0.00 | 0.01 | 0.01 | 100 | 1016.7 |
| 20260504210537 | 77 | 28 | 5.0 | 13.0 | 0.00 | 0.01 | 0.01 | 100 | 1016.5 |
| 20260504210034 | 76 | 146 | 6.0 | 13.0 | 0.00 | 0.01 | 0.01 | 100 | 1016.8 |
| 20260504205534 | 77 | 106 | 3.0 | 15.0 | 0.00 | 0.01 | 0.01 | 100 | 1016.6 |
| 20260504205035 | 77 | 134 | 5.0 | 15.0 | 0.00 | 0.01 | 0.01 | 100 | 1016.7 |
| 20260504204535 | 76 | 126 | 4.0 | 14.0 | 0.00 | 0.01 | 0.01 | 100 | 1016.6 |
| 20260504204033 | 76 | 28 | 5.0 | 18.0 | 0.00 | 0.01 | 0.01 | 100 | 1016.8 |
| 20260504203533 | 76 | 132 | 5.0 | 18.0 | 0.00 | 0.01 | 0.01 | 100 | 1016.7 |
| 20260504203045 | 77 | 165 | 5.0 | 13.0 | 0.00 | 0.01 | 0.01 | 100 | 1016.8 |
| 20260504202533 | 76 | 101 | 5.0 | 15.0 | 0.00 | 0.01 | 0.01 | 100 | 1016.7 |
| 20260504202033 | 76 | 137 | 7.0 | 15.0 | 0.00 | 0.01 | 0.01 | 100 | 1017.0 |
| 20260504201532 | 77 | 111 | 4.0 | 12.0 | 0.00 | 0.01 | 0.01 | 100 | 1016.9 |
| 20260504201032 | 76 | 121 | 4.0 | 12.0 | 0.00 | 0.01 | 0.01 | 100 | 1016.9 |
| 20260504200532 | 76 | 5 | 4.0 | 11.0 | 0.00 | 0.01 | 0.01 | 100 | 1017.1 |
| 20260504200032 | 76 | 121 | 5.0 | 15.0 | 0.00 | 0.01 | 0.01 | 100 | 1017.2 |
| 20260504195531 | 76 | 72 | 4.0 | 15.0 | 0.00 | 0.01 | 0.01 | 100 | 1017.3 |
| 20260504195031 | 76 | 119 | 5.0 | 15.0 | 0.00 | 0.01 | 0.01 | 100 | 1017.3 |
| 20260504194539 | 77 | 104 | 5.0 | 15.0 | 0.00 | 0.01 | 0.01 | 100 | 1017.3 |
| 20260504194031 | 77 | 142 | 3.0 | 12.0 | 0.00 | 0.01 | 0.01 | 100 | 1017.4 |
| 20260504193533 | 77 | 110 | 3.0 | 11.0 | 0.00 | 0.01 | 0.01 | 100 | 1017.3 |
| 20260504193030 | 77 | 151 | 4.0 | 11.0 | 0.00 | 0.01 | 0.01 | 100 | 1017.4 |
| 20260504192530 | 77 | 87 | 5.0 | 16.0 | 0.00 | 0.01 | 0.01 | 100 | 1017.4 |
| 20260504192032 | 77 | 153 | 6.0 | 16.0 | 0.00 | 0.01 | 0.01 | 100 | 1017.4 |
| 20260504191537 | 77 | 143 | 6.0 | 16.0 | 0.00 | 0.01 | 0.01 | 100 | 1017.4 |
| 20260504191029 | 76 | 128 | 5.0 | 12.0 | 0.00 | 0.01 | 0.01 | 100 | 1017.3 |
| 20260504190532 | 76 | 128 | 4.0 | 13.0 | 0.00 | 0.01 | 0.01 | 100 | 1017.5 |
| 20260504190030 | 77 | 105 | 5.0 | 13.0 | 0.00 | 0.01 | 0.01 | 100 | 1017.6 |
| 20260504185530 | 78 | 72 | 4.0 | 13.0 | 0.00 | 0.01 | 0.01 | 100 | 1017.6 |
| 20260504185032 | 77 | 117 | 4.0 | 13.0 | 0.00 | 0.01 | 0.01 | 100 | 1017.7 |
| 20260504184530 | 78 | 99 | 5.0 | 14.0 | 0.00 | 0.01 | 0.01 | 100 | 1017.7 |
| 20260504184033 | 78 | 98 | 6.0 | 14.0 | 0.00 | 0.01 | 0.01 | 100 | 1017.6 |
| 20260504183530 | 77 | 126 | 6.0 | 14.0 | 0.00 | 0.01 | 0.01 | 100 | 1017.9 |
| 20260504183028 | 77 | 142 | 6.0 | 12.0 | 0.00 | 0.01 | 0.01 | 100 | 1018.0 |
| 20260504182527 | 77 | 121 | 6.0 | 11.0 | 0.00 | 0.01 | 0.01 | 100 | 1018.1 |
| 20260504182027 | 77 | 113 | 3.0 | 12.0 | 0.00 | 0.01 | 0.01 | 100 | 1018.1 |
| 20260504181527 | 77 | 126 | 3.0 | 12.0 | 0.00 | 0.01 | 0.01 | 100 | 1018.1 |
| 20260504181029 | 76 | 121 | 6.0 | 13.0 | 0.00 | 0.01 | 0.01 | 100 | 1018.2 |
| 20260504180527 | 76 | 142 | 6.0 | 13.0 | 0.00 | 0.01 | 0.01 | 100 | 1018.2 |
| 20260504180027 | 77 | 148 | 4.0 | 12.0 | 0.00 | 0.01 | 0.01 | 100 | 1018.1 |
| 20260504175530 | 77 | 139 | 6.0 | 11.0 | 0.00 | 0.01 | 0.01 | 100 | 1018.1 |
| 20260504175026 | 77 | 94 | 4.0 | 11.0 | 0.00 | 0.01 | 0.01 | 100 | 1018.1 |
| 20260504174526 | 77 | 5 | 4.0 | 14.0 | 0.00 | 0.01 | 0.01 | 100 | 1018.2 |
| 20260504174027 | 77 | 135 | 5.0 | 14.0 | 0.00 | 0.01 | 0.01 | 100 | 1018.3 |
| 20260504173526 | 77 | 120 | 3.0 | 13.0 | 0.00 | 0.01 | 0.01 | 100 | 1018.3 |
| 20260504173027 | 77 | 125 | 5.0 | 14.0 | 0.00 | 0.01 | 0.01 | 100 | 1018.3 |
| 20260504172526 | 77 | 41 | 6.0 | 13.0 | 0.00 | 0.01 | 0.01 | 100 | 1018.3 |
| 20260504172025 | 77 | 126 | 4.0 | 14.0 | 0.00 | 0.01 | 0.01 | 100 | 1018.2 |
| 20260504171531 | 77 | 111 | 5.0 | 14.0 | 0.00 | 0.01 | 0.01 | 100 | 1018.3 |
| 20260504171027 | 76 | 119 | 5.0 | 11.0 | 0.00 | 0.01 | 0.01 | 100 | 1018.2 |
| 20260504170524 | 77 | 94 | 3.0 | 12.0 | 0.00 | 0.01 | 0.01 | 100 | 1018.3 |
| 20260504151015 | 76 | 130 | 4.0 | 14.0 | 0.00 | 0.01 | 0.01 | 100 | 1018.6 |
| 20260504150515 | 76 | 137 | 4.0 | 14.0 | 0.00 | 0.01 | 0.01 | 100 | 1018.6 |
| 20260504141013 | 75 | 36 | 3.0 | 13.0 | 0.00 | 0.01 | 0.01 | 100 | 1018.2 |
| 20260504140508 | 75 | 80 | 3.0 | 15.0 | 0.00 | 0.01 | 0.01 | 100 | 1018.1 |
| 20260504130554 | 74 | 27 | 7.0 | 14.0 | 0.00 | 0.01 | 0.01 | 100 | 1017.6 |
| 20260504110539 | 73 | 336 | 5.0 | 13.0 | 0.00 | 0.01 | 0.01 | 100 | 1016.5 |
| 20260504100535 | 72 | 355 | 3.0 | 9.0 | 0.01 | 0.03 | 0.01 | 100 | 1016.1 |
| 20260504081528 | 74 | 355 | 3.0 | 13.0 | 0.00 | 0.09 | 0.00 | 100 | 1015.4 |
| 20260504081026 | 74 | 42 | 4.0 | 12.0 | 0.00 | 0.09 | 0.00 | 100 | 1015.2 |
| 20260504080523 | 74 | 34 | 2.0 | 13.0 | 0.00 | 0.09 | 0.00 | 100 | 1015.3 |